Weather History for Grand Rapids, MI

Change the Weather History Date:

Friday, February 15, 2013

  Actual Average Record
Temperature  
Mean Temperature 25 °F 27 °F  
Max Temperature 29 °F 34 °F 61 °F (1954)
Min Temperature 21 °F 20 °F -7 °F (1963)
Degree Days  
Heating Degree Days 40 38  
Month to date heating degree days 629 592  
Since 1 July heating degree days 3995 4299  
Cooling Degree Days 0 0  
Month to date cooling degree days 0 0  
Year to date cooling degree days 0 0  
Moisture  
Dew Point 16 °F    
Average Humidity 70    
Maximum Humidity 84    
Minimum Humidity 55    
Precipitation  
Precipitation 0.01 in 0.06 in 0.43 in (1992)
Month to date precipitation 1.54 0.88  
Year to date precipitation 5.55 2.97  
Snow  
Snow 0.20 in 0.50 in 4.80 in (1990)
Month to date snowfall 20.8 8.4  
Since 1 July snowfall 45.3 58.4  
Snow Depth 3.00 in    
Sea Level Pressure  
Sea Level Pressure 30.06 in    
Wind  
Wind Speed 8 mph (WNW)    
Max Wind Speed 16 mph    
Max Gust Speed 21 mph    
Visibility 9 miles    
Events Snow    
T = Trace of Precipitation, MM = Missing Value Source: NWS Daily Summary

Daily Weather History Graph

Daily Weather History Graph

Search for Another Location

Airport:

Trip Planner

Search our weather history database for the weather conditions in past years. The results will help you decide how hot, cold, wet, or windy it might be!

Date:

Astronomy

Feb. 15, 2013 Rise Set
Actual Time 7:39 AM EST 6:13 PM EST
Civil Twilight 7:09 AM EST 6:43 PM EST
Nautical Twilight 6:36 AM EST 7:16 PM EST
Astronomical Twilight 6:04 AM EST 7:49 PM EST
Moon 10:05 AM EST (2/15) No Moon Set
Length of Visible Light 11h 33m
Length of Day
10h 34m
Waxing Crescent, 30% of the Moon is Illuminated
Feb 15
Waxing Crescent
Feb 17
First Quarter
Feb 25
Full
Mar 4
Last Quarter
Mar 11
New

Hourly Weather History & Observations

Time (EST) Temp. Windchill Dew Point Humidity Pressure Visibility Wind Dir Wind Speed Gust Speed Precip Events Conditions
12:03 AM 28.4 °F 17.5 °F 21.2 °F 74% 29.89 in 10.0 mi NNW 13.8 mph - N/A   Partly Cloudy
12:15 AM 28.4 °F 18.5 °F 19.4 °F 69% 29.90 in 10.0 mi NW 11.5 mph - N/A   Mostly Cloudy
12:30 AM 28.4 °F 19.1 °F 19.4 °F 69% 29.91 in 10.0 mi WNW 10.4 mph - N/A   Scattered Clouds
12:53 AM 28.0 °F 20.8 °F 19.9 °F 72% 29.94 in 10.0 mi WNW 6.9 mph - N/A   Overcast
1:53 AM 27.0 °F 18.0 °F 19.0 °F 72% 29.95 in 10.0 mi NW 9.2 mph - N/A   Overcast
2:18 AM 26.6 °F 20.0 °F 19.4 °F 74% 29.93 in 10.0 mi NW 5.8 mph - N/A   Overcast
2:53 AM 26.1 °F 20.5 °F 19.0 °F 75% 29.96 in 10.0 mi NNW 4.6 mph - N/A   Overcast
3:28 AM 26.6 °F 18.2 °F 19.4 °F 74% 29.94 in 10.0 mi NW 8.1 mph - N/A   Mostly Cloudy
3:53 AM 25.0 °F 20.7 °F 18.0 °F 75% 29.97 in 10.0 mi NNW 3.5 mph - N/A   Overcast
4:53 AM 25.0 °F - 19.0 °F 78% 29.99 in 10.0 mi Calm Calm - N/A   Overcast
5:01 AM 24.8 °F - 19.4 °F 80% 29.97 in 10.0 mi Calm Calm - N/A   Overcast
5:18 AM 26.6 °F 18.2 °F 17.6 °F 69% 29.98 in 10.0 mi NNW 8.1 mph - N/A   Overcast
5:53 AM 25.0 °F 15.5 °F 16.0 °F 69% 30.04 in 10.0 mi NW 9.2 mph - N/A   Overcast
6:53 AM 24.1 °F 13.7 °F 15.1 °F 69% 30.05 in 10.0 mi NW 10.4 mph - N/A   Overcast
7:53 AM 23.0 °F 15.8 °F 15.1 °F 72% 30.07 in 10.0 mi NW 5.8 mph - N/A   Mostly Cloudy
8:53 AM 24.1 °F 16.0 °F 15.1 °F 69% 30.10 in 10.0 mi NW 6.9 mph - N/A   Mostly Cloudy
9:53 AM 24.1 °F 12.5 °F 12.0 °F 60% 30.11 in 10.0 mi WNW 12.7 mph - N/A   Mostly Cloudy
10:53 AM 24.1 °F 14.4 °F 10.9 °F 57% 30.12 in 10.0 mi NW 9.2 mph 19.6 mph N/A   Mostly Cloudy
11:53 AM 25.0 °F 15.5 °F 12.0 °F 58% 30.13 in 10.0 mi NW 9.2 mph - N/A   Mostly Cloudy
12:53 PM 26.1 °F 18.4 °F 12.9 °F 58% 30.13 in 10.0 mi NW 6.9 mph - N/A   Overcast
1:53 PM 27.0 °F 18.0 °F 12.0 °F 53% 30.12 in 10.0 mi WNW 9.2 mph - N/A   Mostly Cloudy
2:53 PM 27.0 °F 17.3 °F 14.0 °F 58% 30.12 in 10.0 mi West 10.4 mph - N/A   Mostly Cloudy
3:53 PM 27.0 °F 17.3 °F 12.9 °F 56% 30.12 in 9.0 mi WNW 10.4 mph - 0.00 in Snow Light Snow
4:53 PM 26.1 °F 14.5 °F 14.0 °F 60% 30.13 in 9.0 mi West 13.8 mph - 0.00 in Snow Light Snow
5:53 PM 25.0 °F 13.6 °F 14.0 °F 63% 30.15 in 9.0 mi West 12.7 mph - 0.00 in Snow Light Snow
6:53 PM 23.0 °F 13.1 °F 12.0 °F 63% 30.16 in 10.0 mi WNW 9.2 mph - 0.00 in   Scattered Clouds
7:53 PM 23.0 °F 14.7 °F 12.9 °F 65% 30.17 in 10.0 mi WNW 6.9 mph - N/A   Mostly Cloudy
8:53 PM 23.0 °F 14.7 °F 15.1 °F 72% 30.17 in 9.0 mi WNW 6.9 mph - 0.00 in Snow Light Snow
9:33 PM 21.2 °F 13.6 °F 15.8 °F 80% 30.13 in 2.0 mi West 5.8 mph - 0.00 in Snow Light Snow
9:53 PM 21.9 °F 17.2 °F 18.0 °F 85% 30.17 in 2.0 mi WNW 3.5 mph - 0.00 in Snow Light Snow
10:43 PM 21.2 °F - 17.6 °F 86% 30.12 in 2.0 mi Calm Calm - 0.01 in Snow Light Snow
10:53 PM 21.0 °F 14.6 °F 18.0 °F 88% 30.15 in 2.5 mi WSW 4.6 mph - 0.01 in Snow Light Snow
10:58 PM 21.2 °F 14.9 °F 17.6 °F 86% 30.11 in 3.0 mi SW 4.6 mph - 0.00 in Snow Light Snow
11:53 PM 21.0 °F 14.6 °F 17.1 °F 85% 30.14 in 5.0 mi WSW 4.6 mph - 0.00 in Snow Light Snow